Terug naar catalogus

COSMOS 252 DEB *

ActiefLEO
NORAD 3713·DEBRIS·🇷🇺 Russia

Gelanceerd Nov 1, 1968 vanaf Baikonur Cosmodrome

Loading…

Volgende Passages (komende 24 uur)

TLE

VersSource: Space-Track

Epoch: Sep 14, 2026, 04:49 UTC

1 03713U 68097AQ  26257.20114809  .00001090  00000-0  10906-2 0  9999
2 03713  62.2163 323.4244 0648412  27.9160 335.5091 13.14162744700958

Volg COSMOS 252 DEB * in realtime met AllMySat

Download on the App Store